Location: ???????
(55.3754°N, 39.3545°E)
Time: 07:01:38
(UTC+00:00)

Meteor 2-1 Rocket - Pass Details

Date: 14 April 2026
Orbit: 824 x 910 km, 81.3° (Epoch: 13 May)

Event Time Altitude Azimuth Distance (km) Brightness Sun altitude
Exits shadow 20:53:52 56° 137° (SE) 1,066 4.4 -24.7°
Maximum altitude 20:54:44 63° 98° (E) 1,003 4.4 -24.7°
Drops below altitude 10° 21:00:29 10° 19° (NNE) 2,559 7.6 -24.8°
Sets 21:02:56 0° 16° (NNE) 3,490 8.5 -24.8°
